RYR2MV EGCC-LEIB

Flight info

Callsign RYR2MV
Flight time N/A
Altitude 37000
Route LISTO P18 TELBA L151 KIDLI UN859 SOPIL DCT BALAN DCT EVPOK DCT NARAK DCT GAI DCT LOMRA DCT ROCAN DCT PUMAL N859 BCN Z174 CORDA CORD2S
Aircraft B738/M-SDE2E3FGHIRWXY/LB1

Departure

Time N/A
Airport Manchester Airport (EGCC)

Arrival

Time 2026-05-03 20:34
Airport Ibiza Airport (LEIB)
Time Latitude Longitude Altitude Speed Heading
2026-05-03 20:15 39.61898 1.86319 21295 ft 314 kts 222°
2026-05-03 20:15 39.60250 1.84474 20943 ft 314 kts 222°
2026-05-03 20:15 39.58599 1.82628 20588 ft 314 kts 222°
2026-05-03 20:15 39.56940 1.80776 20236 ft 314 kts 222°
2026-05-03 20:16 39.55286 1.78931 19890 ft 313 kts 222°
2026-05-03 20:16 39.53644 1.77100 19540 ft 311 kts 222°
2026-05-03 20:16 39.52010 1.75280 19190 ft 309 kts 222°
2026-05-03 20:16 39.50385 1.73471 18844 ft 307 kts 222°
2026-05-03 20:17 39.48767 1.71671 18507 ft 306 kts 222°
2026-05-03 20:17 39.47159 1.69883 18132 ft 305 kts 222°
2026-05-03 20:17 39.45555 1.68101 17763 ft 303 kts 222°
2026-05-03 20:17 39.43962 1.66333 17403 ft 300 kts 222°
2026-05-03 20:18 39.42404 1.64603 17063 ft 298 kts 222°
2026-05-03 20:18 39.40837 1.62866 16716 ft 296 kts 222°
2026-05-03 20:18 39.39282 1.61142 16387 ft 293 kts 222°
2026-05-03 20:18 39.37740 1.59435 16056 ft 291 kts 222°
2026-05-03 20:19 39.36206 1.57736 15732 ft 289 kts 222°
2026-05-03 20:19 39.34682 1.56050 15406 ft 287 kts 222°
2026-05-03 20:19 39.33168 1.54376 15086 ft 286 kts 222°
2026-05-03 20:19 39.31663 1.52713 14764 ft 284 kts 222°
2026-05-03 20:20 39.30163 1.51056 14443 ft 283 kts 222°
2026-05-03 20:20 39.28674 1.49413 14130 ft 281 kts 222°
2026-05-03 20:20 39.27192 1.47778 13811 ft 280 kts 223°
2026-05-03 20:20 39.25716 1.46149 13459 ft 280 kts 222°
2026-05-03 20:21 39.24240 1.44524 13122 ft 278 kts 222°
2026-05-03 20:21 39.22771 1.42906 12798 ft 276 kts 223°
2026-05-03 20:21 39.21314 1.41302 12475 ft 274 kts 223°
2026-05-03 20:21 39.19870 1.39714 12164 ft 273 kts 223°
2026-05-03 20:22 39.18413 1.38112 11861 ft 278 kts 222°
2026-05-03 20:22 39.16922 1.36472 11550 ft 286 kts 222°
2026-05-03 20:22 39.15396 1.34794 11223 ft 291 kts 222°
2026-05-03 20:22 39.14371 1.33669 11004 ft 292 kts 222°
2026-05-03 20:23 39.12816 1.31963 10668 ft 295 kts 222°
2026-05-03 20:23 39.11267 1.30266 10321 ft 288 kts 222°
2026-05-03 20:23 39.09762 1.28620 10000 ft 281 kts 223°
2026-05-03 20:23 39.08295 1.27015 9658 ft 273 kts 222°
2026-05-03 20:24 39.06868 1.25453 9341 ft 267 kts 223°
2026-05-03 20:24 39.05450 1.23901 9036 ft 267 kts 222°
2026-05-03 20:24 39.04035 1.22354 8734 ft 267 kts 222°
2026-05-03 20:24 39.02617 1.20804 8434 ft 266 kts 222°
2026-05-03 20:25 39.01212 1.19269 8088 ft 263 kts 222°
2026-05-03 20:25 38.99817 1.17746 7599 ft 264 kts 222°
2026-05-03 20:25 38.98417 1.16218 7105 ft 264 kts 222°
2026-05-03 20:25 38.97016 1.14691 6641 ft 263 kts 222°
2026-05-03 20:26 38.95623 1.13172 6148 ft 263 kts 222°
2026-05-03 20:26 38.94238 1.11664 5681 ft 258 kts 221°
2026-05-03 20:26 38.92890 1.10197 5186 ft 251 kts 221°
2026-05-03 20:26 38.91571 1.08762 4688 ft 245 kts 221°
2026-05-03 20:27 38.90302 1.07380 4215 ft 239 kts 221°
2026-05-03 20:27 38.89053 1.06023 3721 ft 232 kts 220°
2026-05-03 20:27 38.87660 1.05083 3233 ft 227 kts 187°
2026-05-03 20:27 38.86167 1.05398 3102 ft 213 kts 158°
2026-05-03 20:28 38.84966 1.06398 3002 ft 199 kts 139°
2026-05-03 20:28 38.84018 1.07582 2978 ft 182 kts 136°
2026-05-03 20:28 38.83132 1.08731 2996 ft 181 kts 136°
2026-05-03 20:28 38.82248 1.09868 2989 ft 179 kts 136°
2026-05-03 20:29 38.81374 1.10985 2992 ft 177 kts 137°
2026-05-03 20:29 38.80504 1.12092 2992 ft 176 kts 137°
2026-05-03 20:29 38.79637 1.13195 2990 ft 175 kts 137°
2026-05-03 20:29 38.78932 1.14443 2956 ft 176 kts 104°
2026-05-03 20:30 38.79069 1.15965 3035 ft 174 kts 73°
2026-05-03 20:30 38.79444 1.17461 3004 ft 176 kts 71°
2026-05-03 20:30 38.79876 1.18932 2893 ft 178 kts 70°
2026-05-03 20:30 38.80362 1.20402 2685 ft 178 kts 66°
2026-05-03 20:31 38.80904 1.21798 2430 ft 171 kts 64°
2026-05-03 20:31 38.81448 1.23134 2224 ft 169 kts 64°
2026-05-03 20:31 38.81994 1.24462 2034 ft 164 kts 64°
2026-05-03 20:31 38.82519 1.25741 1786 ft 164 kts 64°
2026-05-03 20:32 38.83041 1.27017 1558 ft 159 kts 65°
2026-05-03 20:32 38.83488 1.28111 1288 ft 158 kts 64°
2026-05-03 20:32 38.83996 1.29343 1178 ft 159 kts 63°
2026-05-03 20:32 38.84526 1.30624 901 ft 163 kts 64°
2026-05-03 20:33 38.85046 1.31888 746 ft 158 kts 64°
2026-05-03 20:33 38.85560 1.33130 522 ft 157 kts 63°
2026-05-03 20:33 38.86065 1.34364 297 ft 155 kts 62°
2026-05-03 20:33 38.86558 1.35560 111 ft 151 kts 62°
2026-05-03 20:34 38.87039 1.36716 15 ft 137 kts 62°
2026-05-03 20:34 38.87420 1.37637 4 ft 88 kts 62°
2026-05-03 20:34 38.87603 1.38083 5 ft 25 kts 62°
2026-05-03 20:34 38.87676 1.38234 6 ft 21 kts 33°
2026-05-03 20:35 38.87807 1.38185 7 ft 21 kts 324°
2026-05-03 20:35 38.87796 1.38095 7 ft 9 kts 237°
2026-05-03 20:35 38.87765 1.38030 9 ft 9 kts 250°
2026-05-03 20:35 38.87736 1.37949 8 ft 11 kts 244°
2026-05-03 20:36 38.87703 1.37867 7 ft 10 kts 239°
2026-05-03 20:36 38.87668 1.37788 7 ft 10 kts 240°
2026-05-03 20:36 38.87635 1.37712 8 ft 10 kts 243°
2026-05-03 20:36 38.87595 1.37618 7 ft 15 kts 241°
2026-05-03 20:37 38.87547 1.37502 7 ft 14 kts 243°
2026-05-03 20:37 38.87524 1.37444 7 ft 2 kts 243°
2026-05-03 20:37 38.87528 1.37424 8 ft 3 kts 302°
2026-05-03 20:37 38.87555 1.37386 8 ft 9 kts 326°
2026-05-03 20:38 38.87600 1.37354 7 ft 5 kts 332°
2026-05-03 20:38 38.87602 1.37353 7 ft 0 kts 332°